Tracking 27382 objects as of 4-Jun-2023
HD Live streaming from Space Station
objects crossing your sky now

ATLAS 5 CENTAUR DEB

Track ATLAS 5 CENTAUR DEB now!


NORAD ID: 44006
Int'l Code: 2014-055BM
Perigee: 7,770.9 km
Apogee: 34,834.6 km
Inclination: 20.7 °
Period: 763.6 minutes
Semi major axis: 27673 km
RCS: Unknown
Launch date: September 17, 2014
Source: United States (US)
Launch site: AIR FORCE EASTERN TEST RANGE (AFETR)

Note: This is SATELLITE DEBRIS
Your satellite tracking list
Your tracking list is empty




NASA's NSSDC Master Catalog

Two Line Element Set (TLE):
1 44006U 14055BM  23139.02123915 -.00000132  00000-0  00000-0 0  9997
2 44006  20.6978 245.0240 4889792 351.7403   2.4608  1.88582252 32023
Source of the keplerian elements: AFSPC